| time (UTC) | temp C | wind direction | speed KPH | gust KPH | rain 1hr cm | rain 24hr cm | rain mn cm | humidity % | barometer mb |
| 20260509093004 | 2 | 216 | 3.2 | 4.8 | 0.00 | 0.00 | 0.00 | 67 | 1015.2 |
| 20260509091511 | 3 | 209 | 4.8 | 6.4 | 0.00 | 0.00 | 0.00 | 64 | 1015.2 |
| 20260509090009 | 3 | 210 | 3.2 | 6.4 | 0.00 | 0.00 | 0.00 | 66 | 1015.1 |
| 20260509084507 | 2 | 215 | 3.2 | 4.8 | 0.00 | 0.00 | 0.00 | 71 | 1015.0 |
| 20260509083007 | 2 | 217 | 3.2 | 3.2 | 0.00 | 0.00 | 0.00 | 71 | 1014.8 |
| 20260509081506 | 2 | 217 | 1.6 | 4.8 | 0.00 | 0.00 | 0.00 | 70 | 1014.6 |
| 20260509080007 | 3 | 212 | 3.2 | 6.4 | 0.00 | 0.00 | 0.00 | 69 | 1014.8 |
| 20260509074508 | 3 | 210 | 3.2 | 8.0 | 0.00 | 0.00 | 0.00 | 69 | 1015.1 |
| 20260509073008 | 3 | 206 | 3.2 | 6.4 | 0.00 | 0.00 | 0.00 | 71 | 1015.1 |
| 20260509071509 | 3 | 214 | 4.8 | 6.4 | 0.00 | 0.00 | 0.00 | 71 | 1015.2 |
| 20260509070008 | 3 | 209 | 3.2 | 9.7 | 0.00 | 0.00 | 0.00 | 71 | 1015.3 |
| 20260509064512 | 3 | 213 | 3.2 | 6.4 | 0.00 | 0.00 | 0.00 | 72 | 1015.3 |
| 20260509063022 | 3 | 229 | 3.2 | 8.0 | 0.00 | 0.00 | 0.00 | 71 | 1015.3 |
| 20260509061508 | 3 | 205 | 4.8 | 11.3 | 0.00 | 0.00 | 0.00 | 71 | 1015.3 |
| 20260509060007 | 3 | 215 | 3.2 | 6.4 | 0.00 | 0.00 | 0.00 | 70 | 1015.3 |
| 20260509054510 | 3 | 216 | 4.8 | 8.0 | 0.00 | 0.00 | 0.00 | 69 | 1015.3 |
| 20260509053011 | 3 | 202 | 3.2 | 6.4 | 0.00 | 0.00 | 0.00 | 69 | 1015.2 |
| 20260509051513 | 3 | 209 | 3.2 | 6.4 | 0.00 | 0.00 | 0.00 | 70 | 1015.1 |
| 20260509050011 | 3 | 205 | 3.2 | 6.4 | 0.00 | 0.00 | 0.00 | 71 | 1015.1 |
| 20260509044510 | 3 | 222 | 3.2 | 6.4 | 0.00 | 0.00 | 0.00 | 71 | 1015.0 |
| 20260509043022 | 3 | 207 | 3.2 | 4.8 | 0.00 | 0.00 | 0.00 | 71 | 1015.1 |
| 20260509041514 | 3 | 194 | 4.8 | 6.4 | 0.00 | 0.00 | 0.00 | 71 | 1015.2 |
| 20260509040013 | 3 | 200 | 3.2 | 6.4 | 0.00 | 0.00 | 0.00 | 73 | 1015.1 |
| 20260509034515 | 3 | 197 | 4.8 | 6.4 | 0.00 | 0.00 | 0.00 | 73 | 1014.9 |
| 20260509033010 | 3 | 202 | 4.8 | 8.0 | 0.00 | 0.00 | 0.00 | 72 | 1014.8 |
| 20260509031516 | 3 | 205 | 3.2 | 6.4 | 0.00 | 0.00 | 0.00 | 73 | 1014.7 |
| 20260509030015 | 3 | 196 | 4.8 | 4.8 | 0.00 | 0.00 | 0.00 | 73 | 1014.7 |
| 20260509024506 | 3 | 190 | 3.2 | 4.8 | 0.00 | 0.00 | 0.00 | 71 | 1014.6 |
| 20260509023008 | 3 | 206 | 3.2 | 4.8 | 0.00 | 0.00 | 0.00 | 71 | 1014.4 |
| 20260509021514 | 4 | 190 | 3.2 | 6.4 | 0.00 | 0.00 | 0.00 | 69 | 1014.4 |
| 20260509020014 | 4 | 197 | 4.8 | 4.8 | 0.00 | 0.00 | 0.00 | 69 | 1014.2 |
| 20260509014525 | 5 | 205 | 3.2 | 4.8 | 0.00 | 0.00 | 0.00 | 67 | 1014.0 |
| 20260509013007 | 5 | 177 | 3.2 | 4.8 | 0.00 | 0.00 | 0.00 | 64 | 1013.9 |
| 20260509011513 | 6 | 225 | 3.2 | 9.7 | 0.00 | 0.00 | 0.00 | 62 | 1013.7 |
| 20260509010025 | 6 | 182 | 1.6 | 11.3 | 0.00 | 0.00 | 0.00 | 60 | 1013.3 |
| 20260509004522 | 7 | 218 | 0.0 | 8.0 | 0.00 | 0.00 | 0.00 | 59 | 1013.2 |
| 20260509003018 | 7 | 259 | 4.8 | 9.7 | 0.00 | 0.00 | 0.00 | 56 | 1012.9 |
| 20260509001510 | 7 | 223 | 3.2 | 6.4 | 0.00 | 0.00 | 0.00 | 50 | 1012.6 |
| 20260509000016 | 7 | 246 | 0.0 | 3.2 | 0.00 | 0.00 | 0.00 | 47 | 1012.5 |
| 20260508234518 | 7 | 238 | 0.0 | 3.2 | 0.00 | 0.00 | 0.00 | 46 | 1012.3 |
| 20260508233018 | 8 | 184 | 0.0 | 3.2 | 0.00 | 0.00 | 0.00 | 46 | 1012.1 |
| 20260508231518 | 8 | 309 | 1.6 | 8.0 | 0.00 | 0.00 | 0.00 | 42 | 1012.1 |
| 20260508230012 | 8 | 222 | 1.6 | 9.7 | 0.00 | 0.00 | 0.00 | 41 | 1012.0 |
| 20260508224521 | 8 | 145 | 3.2 | 11.3 | 0.00 | 0.00 | 0.00 | 41 | 1011.7 |
| 20260508223020 | 9 | 202 | 6.4 | 9.7 | 0.00 | 0.00 | 0.00 | 39 | 1011.7 |
| 20260508221522 | 9 | 324 | 3.2 | 11.3 | 0.00 | 0.00 | 0.00 | 40 | 1011.6 |
| 20260508220022 | 10 | 126 | 1.6 | 12.9 | 0.00 | 0.00 | 0.00 | 42 | 1011.5 |
| 20260508214524 | 9 | 271 | 6.4 | 19.3 | 0.00 | 0.00 | 0.00 | 39 | 1011.4 |
| 20260508213019 | 9 | 317 | 4.8 | 14.5 | 0.00 | 0.00 | 0.00 | 40 | 1011.4 |
| 20260508211522 | 9 | 247 | 4.8 | 16.1 | 0.00 | 0.00 | 0.00 | 44 | 1011.4 |
| 20260508210031 | 8 | 263 | 4.8 | 16.1 | 0.00 | 0.00 | 0.00 | 42 | 1011.3 |
| 20260508204514 | 10 | 279 | 3.2 | 16.1 | 0.00 | 0.00 | 0.00 | 43 | 1011.1 |
| 20260508203022 | 9 | 247 | 3.2 | 17.7 | 0.00 | 0.00 | 0.00 | 44 | 1011.1 |
| 20260508201524 | 9 | 286 | 4.8 | 17.7 | 0.00 | 0.00 | 0.00 | 43 | 1011.1 |
| 20260508200026 | 9 | 61 | 11.3 | 19.3 | 0.00 | 0.00 | 0.00 | 43 | 1011.0 |
| 20260508194525 | 8 | 238 | 1.6 | 12.9 | 0.00 | 0.00 | 0.00 | 49 | 1011.2 |
| 20260508193016 | 8 | 243 | 4.8 | 11.3 | 0.00 | 0.00 | 0.00 | 45 | 1011.2 |
| 20260508191520 | 8 | 336 | 1.6 | 16.1 | 0.00 | 0.00 | 0.00 | 45 | 1011.2 |
| 20260508190005 | 8 | 236 | 3.2 | 9.7 | 0.00 | 0.00 | 0.00 | 46 | 1011.2 |
| 20260508184514 | 8 | 329 | 3.2 | 14.5 | 0.00 | 0.00 | 0.00 | 47 | 1011.3 |
| 20260508183013 | 8 | 40 | 3.2 | 14.5 | 0.00 | 0.00 | 0.00 | 49 | 1011.3 |
| 20260508181518 | 7 | 347 | 3.2 | 14.5 | 0.00 | 0.00 | 0.00 | 49 | 1011.5 |
| 20260508180004 | 7 | 278 | 3.2 | 19.3 | 0.00 | 0.00 | 0.00 | 46 | 1011.4 |
| 20260508174509 | 7 | 267 | 9.7 | 17.7 | 0.00 | 0.00 | 0.00 | 46 | 1011.5 |
| 20260508173009 | 8 | 252 | 9.7 | 20.9 | 0.00 | 0.00 | 0.00 | 49 | 1011.5 |
| 20260508171523 | 7 | 255 | 6.4 | 17.7 | 0.00 | 0.00 | 0.00 | 48 | 1011.5 |
| 20260508170021 | 7 | 275 | 4.8 | 14.5 | 0.00 | 0.00 | 0.00 | 49 | 1011.6 |
| 20260508164504 | 7 | 308 | 4.8 | 14.5 | 0.00 | 0.00 | 0.00 | 52 | 1011.7 |
| 20260508163015 | 7 | 296 | 6.4 | 22.5 | 0.00 | 0.00 | 0.00 | 50 | 1011.6 |
| 20260508161527 | 8 | 298 | 4.8 | 14.5 | 0.00 | 0.00 | 0.00 | 46 | 1011.4 |
| 20260508160017 | 7 | 257 | 6.4 | 16.1 | 0.00 | 0.00 | 0.00 | 48 | 1011.2 |
| 20260508154525 | 8 | 248 | 3.2 | 16.1 | 0.00 | 0.00 | 0.00 | 46 | 1011.1 |
| 20260508153016 | 8 | 18 | 6.4 | 17.7 | 0.00 | 0.00 | 0.00 | 47 | 1011.0 |
| 20260508150017 | 7 | 281 | 9.7 | 19.3 | 0.00 | 0.00 | 0.00 | 45 | 1011.2 |
| 20260508144522 | 7 | 231 | 11.3 | 20.9 | 0.00 | 0.00 | 0.00 | 45 | 1011.0 |
| 20260508143005 | 7 | 209 | 6.4 | 19.3 | 0.00 | 0.00 | 0.00 | 44 | 1011.0 |
| 20260508141508 | 8 | 195 | 6.4 | 20.9 | 0.00 | 0.00 | 0.00 | 42 | 1011.1 |
| 20260508140016 | 7 | 312 | 4.8 | 25.7 | 0.00 | 0.00 | 0.00 | 43 | 1011.1 |
| 20260508134522 | 7 | 214 | 8.0 | 24.1 | 0.00 | 0.00 | 0.00 | 42 | 1011.2 |
| 20260508133024 | 7 | 217 | 9.7 | 19.3 | 0.00 | 0.00 | 0.00 | 43 | 1011.2 |
| 20260508131510 | 7 | 280 | 9.7 | 22.5 | 0.00 | 0.00 | 0.00 | 50 | 1011.4 |
| 20260508130014 | 6 | 350 | 3.2 | 16.1 | 0.00 | 0.00 | 0.00 | 52 | 1011.5 |
| 20260508124519 | 6 | 213 | 4.8 | 19.3 | 0.00 | 0.00 | 0.00 | 56 | 1011.6 |
| 20260508123024 | 5 | 202 | 4.8 | 11.3 | 0.00 | 0.00 | 0.00 | 61 | 1011.5 |
| 20260508121528 | 5 | 230 | 8.0 | 16.1 | 0.00 | 0.00 | 0.00 | 62 | 1011.5 |
| 20260508120009 | 5 | 258 | 9.7 | 17.7 | 0.00 | 0.00 | 0.00 | 62 | 1011.5 |
| 20260508114514 | 4 | 223 | 9.7 | 16.1 | 0.00 | 0.00 | 0.00 | 62 | 1011.4 |
| 20260508113020 | 4 | 225 | 3.2 | 12.9 | 0.00 | 0.00 | 0.00 | 63 | 1011.3 |
| 20260508111523 | 4 | 238 | 6.4 | 14.5 | 0.00 | 0.00 | 0.00 | 65 | 1011.2 |
| 20260508110032 | 3 | 223 | 4.8 | 12.9 | 0.00 | 0.00 | 0.00 | 65 | 1011.1 |
| 20260508104516 | 3 | 206 | 1.6 | 9.7 | 0.00 | 0.00 | 0.00 | 66 | 1011.0 |
| 20260508103035 | 2 | 199 | 3.2 | 11.3 | 0.00 | 0.00 | 0.00 | 69 | 1010.8 |
| 20260508101522 | 2 | 194 | 3.2 | 9.7 | 0.00 | 0.00 | 0.00 | 71 | 1010.7 |
| 20260508100028 | 1 | 183 | 4.8 | 8.0 | 0.00 | 0.00 | 0.00 | 73 | 1010.4 |
| 20260508094528 | 1 | 207 | 4.8 | 8.0 | 0.00 | 0.00 | 0.00 | 74 | 1010.3 |